Flag for Germany Weather past 2 weeks in Bocholt, North Rhine-Westphalia, Germany

Now
34 °F

Light snow. Passing clouds.


Feels Like: 24 °F
Forecast: 32 / 38 °F
Wind: 14 mph from West

Location: Niederrhein

Current Time: Jan 30, 2015 at 6:23:30 AM

Latest Report: Jan 30, 2015 at 5:50 AM


Visibility: 3 mi

Pressure: 28.77 "Hg

Humidity: 100%

Dew point: 34 °F

Location of BocholtLocation

Historic Weather in Bocholt — Graph

°F

Bocholt temperature yesterday

Maximum temperature yesterday: 41 °F (at 12:50 PM)
Minimum temperature yesterday: 34 °F (at 5:20 AM)
Average temperature yesterday: 38 °F

Past Weeks' High & Low Weather Summary

 TemperatureHumidityPressure
High52 °F (Jan 15, 2:50 PM)100% (Jan 15, 4:50 AM)30.42 "Hg (Jan 15, 4:50 AM)
Low27 °F (Jan 21, 5:20 AM)65% (Jan 21, 1:20 PM)28.68 "Hg (Jan 29, 11:50 PM)
Average37 °F93%29.90 "Hg
* Reported Jan 14 11:20 PM — Jan 29 11:50 PM, Bocholt, Weather by CustomWeather, © 2014

Note: Actual official high and low records may vary slightly from our data, if they occured in-between our weather recording intervals... More about our weather records

Advertising

Bocholt weather history for previous 24 hours

 ConditionsComfort  
Time TempWeatherWind HumidityBarometerVisibility
11:50 PM
Jan 29
37 °FPassing clouds.9 mph100%28.68 "HgN/A
10:50 PM37 °FSprinkles. Passing clouds.8 mph100%28.71 "Hg5 mi
10:20 PM37 °FPassing clouds.7 mph100%28.71 "HgN/A
9:50 PM37 °FPassing clouds.7 mph100%28.74 "HgN/A
9:20 PM37 °FPassing clouds.6 mph100%28.74 "HgN/A
8:50 PM37 °FPassing clouds.8 mph100%28.77 "HgN/A
8:20 PM39 °FPassing clouds.9 mph93%28.77 "HgN/A
7:50 PM37 °FPassing clouds.10 mph93%28.80 "HgN/A
7:20 PM39 °FPassing clouds.9 mph87%28.80 "HgN/A
6:50 PM37 °FPassing clouds.9 mph93%28.82 "HgN/A
6:20 PM39 °FPassing clouds.13 mph87%28.85 "HgN/A
5:50 PM39 °FScattered clouds.12 mph93%28.85 "HgN/A
5:20 PM41 °FScattered clouds.13 mph87%28.88 "HgN/A
4:50 PM41 °FScattered showers. Scattered clouds.12 mph81%28.88 "HgN/A
4:20 PM41 °FScattered showers. Scattered clouds.14 mph87%28.91 "HgN/A
3:50 PM41 °FScattered showers. Scattered clouds.15 mph87%28.94 "HgN/A
3:20 PM41 °FScattered clouds.14 mph87%28.97 "HgN/A
2:50 PM41 °FScattered clouds.16 mph87%29.00 "HgN/A
2:20 PM41 °FPassing clouds.17 mph87%29.03 "HgN/A
1:50 PM41 °FScattered clouds.17 mph81%29.03 "HgN/A
1:20 PM41 °FPartly sunny.20 mph76%29.06 "HgN/A
12:50 PM41 °FPartly sunny.14 mph76%29.09 "HgN/A
12:20 PM39 °FScattered clouds.14 mph81%29.12 "HgN/A
11:50 AM39 °FScattered clouds.16 mph87%29.15 "HgN/A
11:20 AM39 °FScattered clouds.17 mph87%29.15 "HgN/A
10:50 AM39 °FBroken clouds.16 mph87%29.18 "HgN/A
10:20 AM37 °FPartly sunny.15 mph93%29.18 "HgN/A
9:50 AM37 °FPartly sunny.15 mph93%29.21 "HgN/A
9:20 AM37 °FScattered clouds.16 mph93%29.21 "HgN/A
8:50 AM36 °FLight rain. Passing clouds.12 mph100%29.24 "HgN/A
8:20 AM36 °FPassing clouds.13 mph93%29.24 "HgN/A
7:50 AM36 °FPassing clouds.16 mph93%29.24 "HgN/A
7:20 AM36 °FPassing clouds.15 mph93%29.27 "HgN/A
6:50 AM36 °FClear.15 mph93%29.27 "Hg10 mi
6:20 AM36 °FClear.16 mph87%29.30 "Hg10 mi
Weather by CustomWeather, © 2014

See weather overviewHow to use our weather pages